EW7772 Weather Reports


time (UTC)temp
C
wind
direction
speed
KPH
gust
KPH
rain 1hr
cm
rain 24hr
cm
rain mn
cm
humidity
%
barometer
mb
20260509191540 18 19 0.0 0.0 0.00 0.00 0.00 63 1013.6
20260509190040 18 19 0.0 0.0 0.00 0.00 0.00 59 1013.5
20260509184554 20 19 0.0 0.0 0.00 0.00 0.00 55 1013.4
20260509183039 20 19 0.0 1.6 0.00 0.00 0.00 54 1013.3
20260509181546 20 19 0.0 1.6 0.00 0.00 0.00 51 1013.3
20260509180038 20 19 0.0 3.2 0.00 0.00 0.00 48 1013.2
20260509174539 21 242 0.0 0.0 0.00 0.00 0.00 46 1013.1
20260509173039 21 242 0.0 1.6 0.00 0.00 0.00 43 1013.1
20260509171538 21 242 0.0 1.6 0.00 0.00 0.00 44 1013.0
20260509170038 22 243 0.0 0.0 0.00 0.00 0.00 41 1013.1
20260509164535 22 243 0.0 1.6 0.00 0.00 0.00 39 1013.1
20260509163035 24 242 0.0 1.6 0.00 0.00 0.00 36 1013.4
20260509161533 23 242 0.0 3.2 0.00 0.00 0.00 35 1013.5
20260509160035 23 252 0.0 1.6 0.00 0.00 0.00 36 1013.6
20260509154529 23 252 0.0 3.2 0.00 0.00 0.00 36 1013.7
20260509153039 24 252 0.0 4.8 0.00 0.00 0.00 36 1013.9
20260509151525 25 285 0.0 1.6 0.00 0.00 0.00 34 1014.1
20260509150030 24 284 0.0 3.2 0.00 0.00 0.00 38 1014.2
20260509144528 24 284 0.0 3.2 0.00 0.00 0.00 37 1014.2
20260509143021 24 292 0.0 3.2 0.00 0.00 0.00 37 1014.3
20260509141523 23 293 0.0 4.8 0.00 0.00 0.00 40 1014.4
20260509140015 23 312 0.0 3.2 0.00 0.00 0.00 41 1014.6
20260509134524 23 299 0.0 6.4 0.00 0.00 0.00 38 1014.8
20260509133017 23 32 0.0 3.2 0.00 0.00 0.00 42 1014.9
20260509131512 22 249 0.0 4.8 0.00 0.00 0.00 45 1015.2
20260509130005 22 90 0.0 3.2 0.00 0.00 0.00 48 1015.3
20260509124505 21 182 0.0 3.2 0.00 0.00 0.00 51 1015.5
20260509123002 21 294 0.0 4.8 0.00 0.00 0.00 53 1015.6
20260509121616 21 76 0.0 4.8 0.00 0.00 0.00 56 1015.8
20260509120115 22 247 1.6 4.8 0.00 0.00 0.00 51 1016.0
20260509114603 22 41 0.0 4.8 0.00 0.00 0.00 54 1016.1
20260509113055 21 91 1.6 4.8 0.00 0.00 0.00 54 1016.3
20260509111602 21 263 0.0 3.2 0.00 0.00 0.00 54 1016.3
20260509110047 20 55 1.6 4.8 0.00 0.00 0.00 58 1016.6
20260509104548 20 171 0.0 3.2 0.00 0.00 0.00 57 1016.8
20260509103051 20 88 0.0 4.8 0.00 0.00 0.00 60 1017.0
20260509101606 19 105 0.0 6.4 0.00 0.00 0.00 60 1017.1
20260509100041 19 95 0.0 8.0 0.00 0.00 0.00 62 1017.2
20260509094538 18 90 0.0 4.8 0.00 0.00 0.00 65 1017.3
20260509093033 18 74 1.6 6.4 0.00 0.00 0.00 62 1017.4
20260509091538 17 85 1.6 8.0 0.00 0.00 0.00 63 1017.3
20260509090036 17 136 0.0 8.0 0.00 0.00 0.00 65 1017.4
20260509084525 17 84 3.2 6.4 0.00 0.00 0.00 64 1017.5
20260509083022 16 90 0.0 6.4 0.00 0.00 0.00 66 1017.6
20260509081526 16 91 1.6 4.8 0.00 0.00 0.00 66 1017.7
20260509080017 15 74 3.2 6.4 0.00 0.00 0.00 68 1017.6
20260509074524 15 88 3.2 6.4 0.00 0.00 0.00 67 1017.8
20260509073014 15 101 0.0 4.8 0.00 0.00 0.00 69 1017.8
20260509071510 14 82 1.6 6.4 0.00 0.00 0.00 71 1017.8
20260509070011 13 77 0.0 3.2 0.00 0.00 0.00 74 1017.7
20260509064505 13 74 0.0 4.8 0.00 0.00 0.00 74 1017.7
20260509063002 12 71 0.0 6.4 0.00 0.00 0.00 76 1017.7
20260509061606 12 74 0.0 3.2 0.00 0.00 0.00 78 1017.7
20260509060057 11 65 0.0 1.6 0.00 0.00 0.00 81 1017.7
20260509054601 11 65 0.0 1.6 0.00 0.00 0.00 82 1017.8
20260509053058 10 65 0.0 0.0 0.00 0.00 0.00 84 1017.7
20260509051552 9 65 0.0 0.0 0.00 0.00 0.00 90 1017.6
20260509050050 8 65 0.0 0.0 0.00 0.00 0.00 91 1017.6
20260509044549 7 65 0.0 0.0 0.00 0.00 0.00 91 1017.6
20260509043048 7 65 0.0 0.0 0.00 0.00 0.00 91 1017.5
20260509041614 7 65 0.0 0.0 0.00 0.00 0.00 92 1017.5
20260509040047 7 65 0.0 0.0 0.00 0.00 0.00 92 1017.5
20260509034548 7 65 0.0 0.0 0.00 0.00 0.00 91 1017.6
20260509033047 6 65 0.0 0.0 0.00 0.00 0.00 91 1017.5
20260509031546 7 65 0.0 0.0 0.00 0.00 0.00 91 1017.6
20260509030047 7 65 0.0 0.0 0.00 0.00 0.00 91 1017.8
20260509024544 7 65 0.0 0.0 0.00 0.00 0.00 90 1017.7
20260509023100 7 65 0.0 0.0 0.00 0.00 0.00 90 1017.6
20260509021541 7 65 0.0 0.0 0.00 0.00 0.00 90 1017.6
20260509020051 7 65 0.0 0.0 0.00 0.00 0.00 89 1017.6
20260509014540 7 65 0.0 0.0 0.00 0.00 0.00 89 1017.6
20260509013044 7 65 0.0 0.0 0.00 0.00 0.00 89 1017.4
20260509011537 7 65 0.0 0.0 0.00 0.00 0.00 89 1017.4
20260509010039 8 65 0.0 0.0 0.00 0.00 0.00 88 1017.5
20260509004535 8 65 0.0 0.0 0.00 0.00 0.00 88 1017.4
20260509003032 8 65 0.0 0.0 0.00 0.00 0.00 87 1017.4
20260509001530 8 65 0.0 0.0 0.00 0.00 0.00 86 1017.4
20260509000029 8 65 0.0 0.0 0.00 0.00 0.00 86 1017.4
20260508234530 9 65 0.0 0.0 0.00 0.00 0.00 86 1017.5
20260508233024 9 65 0.0 0.0 0.00 0.00 0.00 85 1017.5
20260508231523 9 65 0.0 0.0 0.00 0.00 0.00 85 1017.5
20260508230034 9 65 0.0 0.0 0.00 0.00 0.00 85 1017.5
20260508224526 10 65 0.0 0.0 0.00 0.00 0.00 84 1017.5
20260508223026 10 65 0.0 0.0 0.00 0.00 0.00 83 1017.6
20260508221518 10 65 0.0 0.0 0.00 0.00 0.00 82 1017.6
20260508220023 10 65 0.0 0.0 0.00 0.00 0.00 82 1017.6
20260508214525 10 65 0.0 0.0 0.00 0.00 0.00 81 1017.6
20260508213015 11 65 0.0 0.0 0.00 0.00 0.00 80 1017.4
20260508211529 11 65 0.0 0.0 0.00 0.00 0.00 78 1017.4
20260508210014 12 65 0.0 0.0 0.00 0.00 0.00 76 1017.3
20260508204515 12 65 0.0 0.0 0.00 0.00 0.00 75 1017.3
20260508203013 12 65 0.0 0.0 0.00 0.00 0.00 74 1017.3
20260508201515 13 65 0.0 0.0 0.00 0.00 0.00 73 1017.2
20260508200012 13 65 0.0 0.0 0.00 0.00 0.00 72 1017.1
20260508194525 13 65 0.0 0.0 0.00 0.00 0.00 70 1016.9
20260508193011 14 65 0.0 1.6 0.00 0.00 0.00 69 1016.8